Year,Month,Day,Hour,Minute,Value (Times are PST for temperature in C)
2010,04,19,00,00,11.30
2010,04,19,00,01,11.30
2010,04,19,00,02,11.20
2010,04,19,00,03,11.20
2010,04,19,00,04,11.20
2010,04,19,00,05,11.20
2010,04,19,00,06,11.20
2010,04,19,00,07,11.20
2010,04,19,00,08,11.20
2010,04,19,00,09,11.20
2010,04,19,00,10,11.20
2010,04,19,00,11,11.20
2010,04,19,00,12,11.20
2010,04,19,00,13,11.30
2010,04,19,00,14,11.30
2010,04,19,00,15,11.30
2010,04,19,00,16,11.40
2010,04,19,00,17,11.50
2010,04,19,00,18,11.60
2010,04,19,00,19,11.60
2010,04,19,00,20,11.70
2010,04,19,00,21,11.70
2010,04,19,00,22,11.70
2010,04,19,00,23,11.70
2010,04,19,00,24,11.80
2010,04,19,00,25,11.80
2010,04,19,00,26,11.80
2010,04,19,00,27,11.80
2010,04,19,00,28,11.80
2010,04,19,00,29,11.80
2010,04,19,00,30,11.90
2010,04,19,00,31,11.90
2010,04,19,00,32,12.00
2010,04,19,00,33,12.10
2010,04,19,00,34,12.10
2010,04,19,00,35,12.10
2010,04,19,00,36,12.10
2010,04,19,00,37,12.10
2010,04,19,00,38,12.10
2010,04,19,00,39,12.00
2010,04,19,00,40,12.00
2010,04,19,00,41,12.00
2010,04,19,00,42,11.90
2010,04,19,00,43,11.90
2010,04,19,00,44,11.80
2010,04,19,00,45,11.80
2010,04,19,00,46,11.80
2010,04,19,00,47,11.80
2010,04,19,00,48,11.80
2010,04,19,00,49,11.80
2010,04,19,00,50,11.80
2010,04,19,00,51,11.80
2010,04,19,00,52,11.80
2010,04,19,00,53,11.80
2010,04,19,00,54,11.80
2010,04,19,00,55,11.80
2010,04,19,00,56,11.70
2010,04,19,00,57,11.70
2010,04,19,00,58,11.70
2010,04,19,00,59,11.70
2010,04,19,01,00,11.60
2010,04,19,01,01,11.60
2010,04,19,01,02,11.60
2010,04,19,01,03,11.60
2010,04,19,01,04,11.50
2010,04,19,01,05,11.50
2010,04,19,01,06,11.50
2010,04,19,01,07,11.50
2010,04,19,01,08,11.60
2010,04,19,01,09,11.70
2010,04,19,01,10,11.70
2010,04,19,01,11,11.80
2010,04,19,01,12,11.80
2010,04,19,01,13,11.80
2010,04,19,01,14,11.70
2010,04,19,01,15,11.70
2010,04,19,01,16,11.70
2010,04,19,01,17,11.60
2010,04,19,01,18,11.60
2010,04,19,01,19,11.60
2010,04,19,01,20,11.60
2010,04,19,01,21,11.70
2010,04,19,01,22,11.70
2010,04,19,01,23,11.70
2010,04,19,01,24,11.70
2010,04,19,01,25,11.70
2010,04,19,01,26,11.70
2010,04,19,01,27,11.70
2010,04,19,01,28,11.70
2010,04,19,01,29,11.70
2010,04,19,01,30,11.70
2010,04,19,01,31,11.70
2010,04,19,01,32,11.60
2010,04,19,01,33,11.60
2010,04,19,01,34,11.60
2010,04,19,01,35,11.60
2010,04,19,01,36,11.50
2010,04,19,01,37,11.50
2010,04,19,01,38,11.40
2010,04,19,01,39,11.40
2010,04,19,01,40,11.30
2010,04,19,01,41,11.30
2010,04,19,01,42,11.30
2010,04,19,01,43,11.20
2010,04,19,01,44,11.20
2010,04,19,01,45,11.20
2010,04,19,01,46,11.10
2010,04,19,01,47,11.10
2010,04,19,01,48,11.10
2010,04,19,01,49,11.10
2010,04,19,01,50,11.10
2010,04,19,01,51,11.10
2010,04,19,01,52,11.10
2010,04,19,01,53,11.00
2010,04,19,01,54,11.10
2010,04,19,01,55,11.10
2010,04,19,01,56,11.10
2010,04,19,01,57,11.10
2010,04,19,01,58,11.10
2010,04,19,01,59,11.20
2010,04,19,02,00,11.20
2010,04,19,02,01,11.20
2010,04,19,02,02,11.30
2010,04,19,02,03,11.30
2010,04,19,02,04,11.30
2010,04,19,02,05,11.30
2010,04,19,02,06,11.30
2010,04,19,02,07,11.30
2010,04,19,02,08,11.30
2010,04,19,02,09,11.30
2010,04,19,02,10,11.30
2010,04,19,02,11,11.20
2010,04,19,02,12,11.20
2010,04,19,02,13,11.20
2010,04,19,02,14,11.20
2010,04,19,02,15,11.20
2010,04,19,02,16,11.10
2010,04,19,02,17,11.10
2010,04,19,02,18,11.10
2010,04,19,02,19,11.10
2010,04,19,02,20,11.10
2010,04,19,02,21,11.10
2010,04,19,02,22,11.00
2010,04,19,02,23,11.00
2010,04,19,02,24,11.00
2010,04,19,02,25,11.00
2010,04,19,02,26,11.00
2010,04,19,02,27,11.00
2010,04,19,02,28,11.00
2010,04,19,02,29,11.00
2010,04,19,02,30,11.00
2010,04,19,02,31,11.00
2010,04,19,02,32,11.00
2010,04,19,02,33,10.90
2010,04,19,02,34,11.00
2010,04,19,02,35,11.00
2010,04,19,02,36,11.00
2010,04,19,02,37,11.00
2010,04,19,02,38,11.00
2010,04,19,02,39,11.10
2010,04,19,02,40,11.10
2010,04,19,02,41,11.20
2010,04,19,02,42,11.30
2010,04,19,02,43,11.30
2010,04,19,02,44,11.30
2010,04,19,02,45,11.30
2010,04,19,02,46,11.40
2010,04,19,02,47,11.50
2010,04,19,02,48,11.50
2010,04,19,02,49,11.60
2010,04,19,02,50,11.60
2010,04,19,02,51,11.60
2010,04,19,02,52,11.60
2010,04,19,02,53,11.60
2010,04,19,02,54,11.60
2010,04,19,02,55,11.50
2010,04,19,02,56,11.50
2010,04,19,02,57,11.40
2010,04,19,02,58,11.40
2010,04,19,02,59,11.40
2010,04,19,03,00,11.40
2010,04,19,03,01,11.30
2010,04,19,03,02,11.30
2010,04,19,03,03,11.30
2010,04,19,03,04,11.30
2010,04,19,03,05,11.30
2010,04,19,03,06,11.20
2010,04,19,03,07,11.20
2010,04,19,03,08,11.20
2010,04,19,03,09,11.10
2010,04,19,03,10,11.10
2010,04,19,03,11,11.10
2010,04,19,03,12,11.00
2010,04,19,03,13,11.00
2010,04,19,03,14,10.90
2010,04,19,03,15,10.90
2010,04,19,03,16,10.90
2010,04,19,03,17,10.90
2010,04,19,03,18,10.90
2010,04,19,03,19,10.80
2010,04,19,03,20,10.80
2010,04,19,03,21,10.80
2010,04,19,03,22,10.80
2010,04,19,03,23,10.80
2010,04,19,03,24,10.80
2010,04,19,03,25,10.70
2010,04,19,03,26,10.70
2010,04,19,03,27,10.70
2010,04,19,03,28,10.60
2010,04,19,03,29,10.60
2010,04,19,03,30,10.50
2010,04,19,03,31,10.50
2010,04,19,03,32,10.40
2010,04,19,03,33,10.40
2010,04,19,03,34,10.40
2010,04,19,03,35,10.40
2010,04,19,03,36,10.30
2010,04,19,03,37,10.30
2010,04,19,03,38,10.30
2010,04,19,03,39,10.30
2010,04,19,03,40,10.30
2010,04,19,03,41,10.20
2010,04,19,03,42,10.20
2010,04,19,03,43,10.20
2010,04,19,03,44,10.20
2010,04,19,03,45,10.20
2010,04,19,03,46,10.20
2010,04,19,03,47,10.20
2010,04,19,03,48,10.30
2010,04,19,03,49,10.30
2010,04,19,03,50,10.30
2010,04,19,03,51,10.30
2010,04,19,03,52,10.30
2010,04,19,03,53,10.30
2010,04,19,03,54,10.20
2010,04,19,03,55,10.20
2010,04,19,03,56,10.20
2010,04,19,03,57,10.20
2010,04,19,03,58,10.20
2010,04,19,03,59,10.20
2010,04,19,04,00,10.20
2010,04,19,04,01,10.20
2010,04,19,04,02,10.10
2010,04,19,04,03,10.10
2010,04,19,04,04,10.10
2010,04,19,04,05,10.10
2010,04,19,04,06,10.00
2010,04,19,04,07,10.00
2010,04,19,04,08,10.00
2010,04,19,04,09,10.00
2010,04,19,04,10,10.00
2010,04,19,04,11,10.00
2010,04,19,04,12,10.00
2010,04,19,04,13,10.00
2010,04,19,04,14,9.90
2010,04,19,04,15,9.90
2010,04,19,04,16,9.90
2010,04,19,04,17,9.90
2010,04,19,04,18,9.90
2010,04,19,04,19,9.90
2010,04,19,04,20,9.90
2010,04,19,04,21,9.90
2010,04,19,04,22,9.80
2010,04,19,04,23,9.80
2010,04,19,04,24,9.80
2010,04,19,04,25,9.80
2010,04,19,04,26,9.80
2010,04,19,04,27,9.80
2010,04,19,04,28,9.80
2010,04,19,04,29,9.80
2010,04,19,04,30,9.70
2010,04,19,04,31,9.70
2010,04,19,04,32,9.70
2010,04,19,04,33,9.70
2010,04,19,04,34,9.70
2010,04,19,04,35,9.70
2010,04,19,04,36,9.70
2010,04,19,04,37,9.70
2010,04,19,04,38,9.60
2010,04,19,04,39,9.60
2010,04,19,04,40,9.60
2010,04,19,04,41,9.60
2010,04,19,04,42,9.60
2010,04,19,04,43,9.60
2010,04,19,04,44,9.60
2010,04,19,04,45,9.60
2010,04,19,04,46,9.60
2010,04,19,04,47,9.60
2010,04,19,04,48,9.60
2010,04,19,04,49,9.60
2010,04,19,04,50,9.60
2010,04,19,04,51,9.60
2010,04,19,04,52,9.60
2010,04,19,04,53,9.60
2010,04,19,04,54,9.60
2010,04,19,04,55,9.60
2010,04,19,04,56,9.60
2010,04,19,04,57,9.60
2010,04,19,04,58,9.60
2010,04,19,04,59,9.60
2010,04,19,05,00,9.60
2010,04,19,05,01,9.60
2010,04,19,05,02,9.60
2010,04,19,05,03,9.60
2010,04,19,05,04,9.50
2010,04,19,05,05,9.50
2010,04,19,05,06,9.50
2010,04,19,05,07,9.50
2010,04,19,05,08,9.50
2010,04,19,05,09,9.50
2010,04,19,05,10,9.50
2010,04,19,05,11,9.50
2010,04,19,05,12,9.50
2010,04,19,05,13,9.50
2010,04,19,05,14,9.40
2010,04,19,05,15,9.40
2010,04,19,05,16,9.40
2010,04,19,05,17,9.40
2010,04,19,05,18,9.40
2010,04,19,05,19,9.30
2010,04,19,05,20,9.30
2010,04,19,05,21,9.30
2010,04,19,05,22,9.30
2010,04,19,05,23,9.30
2010,04,19,05,24,9.30
2010,04,19,05,25,9.30
2010,04,19,05,26,9.30
2010,04,19,05,27,9.30
2010,04,19,05,28,9.30
2010,04,19,05,29,9.30
2010,04,19,05,30,9.30
2010,04,19,05,31,9.30
2010,04,19,05,32,9.30
2010,04,19,05,33,9.30
2010,04,19,05,34,9.30
2010,04,19,05,35,9.30
2010,04,19,05,36,9.40
2010,04,19,05,37,9.40
2010,04,19,05,38,9.40
2010,04,19,05,39,9.40
2010,04,19,05,40,9.40
2010,04,19,05,41,9.40
2010,04,19,05,42,9.50
2010,04,19,05,43,9.50
2010,04,19,05,44,9.50
2010,04,19,05,45,9.50
2010,04,19,05,46,9.50
2010,04,19,05,47,9.60
2010,04,19,05,48,9.60
2010,04,19,05,49,9.60
2010,04,19,05,50,9.60
2010,04,19,05,51,9.60
2010,04,19,05,52,9.60
2010,04,19,05,53,9.60
2010,04,19,05,54,9.60
2010,04,19,05,55,9.60
2010,04,19,05,56,9.60
2010,04,19,05,57,9.70
2010,04,19,05,58,9.70
2010,04,19,05,59,9.70
2010,04,19,06,00,9.70
2010,04,19,06,01,9.70
2010,04,19,06,02,9.70
2010,04,19,06,03,9.70
2010,04,19,06,04,9.70
2010,04,19,06,05,9.70
2010,04,19,06,06,9.70
2010,04,19,06,07,9.70
2010,04,19,06,08,9.70
2010,04,19,06,09,9.80
2010,04,19,06,10,9.80
2010,04,19,06,11,9.80
2010,04,19,06,12,9.80
2010,04,19,06,13,9.80
2010,04,19,06,14,9.80
2010,04,19,06,15,9.80
2010,04,19,06,16,9.80
2010,04,19,06,17,9.80
2010,04,19,06,18,9.80
2010,04,19,06,19,9.80
2010,04,19,06,20,9.80
2010,04,19,06,21,9.80
2010,04,19,06,22,9.80
2010,04,19,06,23,9.80
2010,04,19,06,24,9.80
2010,04,19,06,25,9.80
2010,04,19,06,26,9.80
2010,04,19,06,27,9.80
2010,04,19,06,28,9.80
2010,04,19,06,29,9.80
2010,04,19,06,30,9.80
2010,04,19,06,31,9.80
2010,04,19,06,32,9.80
2010,04,19,06,33,9.80
2010,04,19,06,34,9.80
2010,04,19,06,35,9.80
2010,04,19,06,36,9.80
2010,04,19,06,37,9.80
2010,04,19,06,38,9.80
2010,04,19,06,39,9.80
2010,04,19,06,40,9.80
2010,04,19,06,41,9.80
2010,04,19,06,42,9.80
2010,04,19,06,43,9.80
2010,04,19,06,44,9.80
2010,04,19,06,45,9.80
2010,04,19,06,46,9.80
2010,04,19,06,47,9.80
2010,04,19,06,48,9.80
2010,04,19,06,49,9.80
2010,04,19,06,50,9.80
2010,04,19,06,51,9.80
2010,04,19,06,52,9.80
2010,04,19,06,53,9.80
2010,04,19,06,54,9.80
2010,04,19,06,55,9.80
2010,04,19,06,56,9.80
2010,04,19,06,57,9.80
2010,04,19,06,58,9.80
2010,04,19,06,59,9.80
2010,04,19,07,00,9.80
2010,04,19,07,01,9.80
2010,04,19,07,02,9.90
2010,04,19,07,03,9.90
2010,04,19,07,04,9.90
2010,04,19,07,05,9.90
2010,04,19,07,06,9.90
2010,04,19,07,07,10.00
2010,04,19,07,08,10.00
2010,04,19,07,09,10.00
2010,04,19,07,10,10.10
2010,04,19,07,11,10.10
2010,04,19,07,12,10.10
2010,04,19,07,13,10.10
2010,04,19,07,14,10.10
2010,04,19,07,15,10.20
2010,04,19,07,16,10.20
2010,04,19,07,17,10.20
2010,04,19,07,18,10.20
2010,04,19,07,19,10.30
2010,04,19,07,20,10.30
2010,04,19,07,21,10.30
2010,04,19,07,22,10.30
2010,04,19,07,23,10.30
2010,04,19,07,24,10.30
2010,04,19,07,25,10.30
2010,04,19,07,26,10.30
2010,04,19,07,27,10.30
2010,04,19,07,28,10.40
2010,04,19,07,29,10.40
2010,04,19,07,30,10.40
2010,04,19,07,31,10.40
2010,04,19,07,32,10.40
2010,04,19,07,33,10.40
2010,04,19,07,34,10.40
2010,04,19,07,35,10.40
2010,04,19,07,36,10.40
2010,04,19,07,37,10.40
2010,04,19,07,38,10.40
2010,04,19,07,39,10.50
2010,04,19,07,40,10.50
2010,04,19,07,41,10.50
2010,04,19,07,42,10.60
2010,04,19,07,43,10.60
2010,04,19,07,44,10.60
2010,04,19,07,45,10.60
2010,04,19,07,46,10.60
2010,04,19,07,47,10.70
2010,04,19,07,48,10.70
2010,04,19,07,49,10.70
2010,04,19,07,50,10.70
2010,04,19,07,51,10.80
2010,04,19,07,52,10.80
2010,04,19,07,53,10.80
2010,04,19,07,54,10.80
2010,04,19,07,55,10.90
2010,04,19,07,56,10.90
2010,04,19,07,57,10.90
2010,04,19,07,58,11.00
2010,04,19,07,59,11.10
2010,04,19,08,00,11.10
2010,04,19,08,01,11.10
2010,04,19,08,02,11.20
2010,04,19,08,03,11.20
2010,04,19,08,04,11.20
2010,04,19,08,05,11.30
2010,04,19,08,06,11.30
2010,04,19,08,07,11.30
2010,04,19,08,08,11.30
2010,04,19,08,09,11.30
2010,04,19,08,10,11.40
2010,04,19,08,11,11.40
2010,04,19,08,12,11.40
2010,04,19,08,13,11.40
2010,04,19,08,14,11.40
2010,04,19,08,15,11.40
2010,04,19,08,16,11.40
2010,04,19,08,17,11.40
2010,04,19,08,18,11.40
2010,04,19,08,19,11.40
2010,04,19,08,20,11.40
2010,04,19,08,21,11.40
2010,04,19,08,22,11.40
2010,04,19,08,23,11.40
2010,04,19,08,24,11.40
2010,04,19,08,25,11.40
2010,04,19,08,26,11.50
2010,04,19,08,27,11.50
2010,04,19,08,28,11.50
2010,04,19,08,29,11.50
2010,04,19,08,30,11.50
2010,04,19,08,31,11.50
2010,04,19,08,32,11.60
2010,04,19,08,33,11.60
2010,04,19,08,34,11.60
2010,04,19,08,35,11.70
2010,04,19,08,36,11.70
2010,04,19,08,37,11.70
2010,04,19,08,38,11.70
2010,04,19,08,39,11.70
2010,04,19,08,40,11.70
2010,04,19,08,41,11.80
2010,04,19,08,42,11.80
2010,04,19,08,43,11.80
2010,04,19,08,44,11.80
2010,04,19,08,45,11.90
2010,04,19,08,46,11.90
2010,04,19,08,47,12.00
2010,04,19,08,48,12.00
2010,04,19,08,49,12.10
2010,04,19,08,50,12.20
2010,04,19,08,51,12.20
2010,04,19,08,52,12.30
2010,04,19,08,53,12.30
2010,04,19,08,54,12.40
2010,04,19,08,55,12.40
2010,04,19,08,56,12.40
2010,04,19,08,57,12.50
2010,04,19,08,58,12.50
2010,04,19,08,59,12.60
2010,04,19,09,00,12.60
2010,04,19,09,01,12.60
2010,04,19,09,02,12.70
2010,04,19,09,03,12.70
2010,04,19,09,04,12.70
2010,04,19,09,05,12.80
2010,04,19,09,06,12.80
2010,04,19,09,07,12.80
2010,04,19,09,08,12.80
2010,04,19,09,09,12.90
2010,04,19,09,10,12.90
2010,04,19,09,11,13.00
2010,04,19,09,12,13.00
2010,04,19,09,13,13.10
2010,04,19,09,14,13.10
2010,04,19,09,15,13.10
2010,04,19,09,16,13.10
2010,04,19,09,17,13.10
2010,04,19,09,18,13.20
2010,04,19,09,19,13.20
2010,04,19,09,20,13.20
2010,04,19,09,21,13.20
2010,04,19,09,22,13.20
2010,04,19,09,23,13.30
2010,04,19,09,24,13.30
2010,04,19,09,25,13.30
2010,04,19,09,26,13.30
2010,04,19,09,27,13.30
2010,04,19,09,28,13.40
2010,04,19,09,29,13.40
2010,04,19,09,30,13.50
2010,04,19,09,31,13.50
2010,04,19,09,32,13.50
2010,04,19,09,33,13.50
2010,04,19,09,34,13.50
2010,04,19,09,35,13.50
2010,04,19,09,36,13.50
2010,04,19,09,37,13.50
2010,04,19,09,38,13.50
2010,04,19,09,39,13.50
2010,04,19,09,40,13.50
2010,04,19,09,41,13.50
2010,04,19,09,42,13.50
2010,04,19,09,43,13.50
2010,04,19,09,44,13.50
2010,04,19,09,45,13.60
2010,04,19,09,46,13.60
2010,04,19,09,47,13.60
2010,04,19,09,48,13.60
2010,04,19,09,49,13.60
2010,04,19,09,50,13.60
2010,04,19,09,51,13.60
2010,04,19,09,52,13.50
2010,04,19,09,53,13.50
2010,04,19,09,54,13.50
2010,04,19,09,55,13.50
2010,04,19,09,56,13.50
2010,04,19,09,57,13.60
2010,04,19,09,58,13.60
2010,04,19,09,59,13.60
2010,04,19,10,00,13.60
2010,04,19,10,01,13.60
2010,04,19,10,02,13.70
2010,04,19,10,03,13.70
2010,04,19,10,04,13.70
2010,04,19,10,05,13.70
2010,04,19,10,06,13.70
2010,04,19,10,07,13.70
2010,04,19,10,08,13.70
2010,04,19,10,09,13.70
2010,04,19,10,10,13.70
2010,04,19,10,11,13.60
2010,04,19,10,12,13.60
2010,04,19,10,13,13.70
2010,04,19,10,14,13.70
2010,04,19,10,15,13.70
2010,04,19,10,16,13.70
2010,04,19,10,17,13.80
2010,04,19,10,18,13.80
2010,04,19,10,19,13.80
2010,04,19,10,20,13.80
2010,04,19,10,21,13.80
2010,04,19,10,22,13.80
2010,04,19,10,23,13.90
2010,04,19,10,24,13.90
2010,04,19,10,25,13.90
2010,04,19,10,26,13.90
2010,04,19,10,27,13.90
2010,04,19,10,28,13.90
2010,04,19,10,29,13.90
2010,04,19,10,30,13.90
2010,04,19,10,31,13.90
2010,04,19,10,32,13.90
2010,04,19,10,33,13.90
2010,04,19,10,34,13.90
2010,04,19,10,35,13.90
2010,04,19,10,36,13.90
2010,04,19,10,37,13.90
2010,04,19,10,38,13.90
2010,04,19,10,39,14.00
2010,04,19,10,40,14.00
2010,04,19,10,41,14.10
2010,04,19,10,42,14.10
2010,04,19,10,43,14.10
2010,04,19,10,44,14.10
2010,04,19,10,45,14.10
2010,04,19,10,46,14.20
2010,04,19,10,47,14.20
2010,04,19,10,48,14.20
2010,04,19,10,49,14.20
2010,04,19,10,50,14.20
2010,04,19,10,51,14.30
2010,04,19,10,52,14.20
2010,04,19,10,53,14.20
2010,04,19,10,54,14.20
2010,04,19,10,55,14.20
2010,04,19,10,56,14.30
2010,04,19,10,57,14.30
2010,04,19,10,58,14.40
2010,04,19,10,59,14.50
2010,04,19,11,00,14.50
2010,04,19,11,01,14.60
2010,04,19,11,02,14.70
2010,04,19,11,03,14.70
2010,04,19,11,04,14.80
2010,04,19,11,05,14.90
2010,04,19,11,06,15.00
2010,04,19,11,07,15.00
2010,04,19,11,08,15.10
2010,04,19,11,09,15.20
2010,04,19,11,10,15.20
2010,04,19,11,11,15.30
2010,04,19,11,12,15.40
2010,04,19,11,13,15.40
2010,04,19,11,14,15.60
2010,04,19,11,15,15.60
2010,04,19,11,16,15.70
2010,04,19,11,17,15.80
2010,04,19,11,18,15.90
2010,04,19,11,19,15.90
2010,04,19,11,20,16.00
2010,04,19,11,21,16.00
2010,04,19,11,22,16.00
2010,04,19,11,23,16.10
2010,04,19,11,24,16.10
2010,04,19,11,25,16.20
2010,04,19,11,26,16.20
2010,04,19,11,27,16.30
2010,04,19,11,28,16.30
2010,04,19,11,29,16.30
2010,04,19,11,30,16.30
2010,04,19,11,31,16.30
2010,04,19,11,32,16.30
2010,04,19,11,33,16.30
2010,04,19,11,34,16.30
2010,04,19,11,35,16.20
2010,04,19,11,36,16.30
2010,04,19,11,37,16.30
2010,04,19,11,38,16.30
2010,04,19,11,39,16.30
2010,04,19,11,40,16.30
2010,04,19,11,41,16.30
2010,04,19,11,42,16.30
2010,04,19,11,43,16.30
2010,04,19,11,44,16.20
2010,04,19,11,45,16.20
2010,04,19,11,46,16.30
2010,04,19,11,47,16.30
2010,04,19,11,48,16.40
2010,04,19,11,49,16.60
2010,04,19,11,50,16.70
2010,04,19,11,51,16.70
2010,04,19,11,52,16.70
2010,04,19,11,53,16.70
2010,04,19,11,54,16.60
2010,04,19,11,55,16.60
2010,04,19,11,56,16.60
2010,04,19,11,57,16.60
2010,04,19,11,58,16.60
2010,04,19,11,59,16.70
2010,04,19,12,00,16.70
2010,04,19,12,01,16.80
2010,04,19,12,02,16.80
2010,04,19,12,03,16.80
2010,04,19,12,04,16.90
2010,04,19,12,05,17.00
2010,04,19,12,06,17.00
2010,04,19,12,07,17.00
2010,04,19,12,08,16.90
2010,04,19,12,09,17.00
2010,04,19,12,10,16.90
2010,04,19,12,11,16.90
2010,04,19,12,12,16.90
2010,04,19,12,13,17.00
2010,04,19,12,14,17.00
2010,04,19,12,15,17.10
2010,04,19,12,16,17.20
2010,04,19,12,17,17.20
2010,04,19,12,18,17.30
2010,04,19,12,19,17.30
2010,04,19,12,20,17.40
2010,04,19,12,21,17.50
2010,04,19,12,22,17.50
2010,04,19,12,23,17.60
2010,04,19,12,24,17.50
2010,04,19,12,25,17.50
2010,04,19,12,26,17.50
2010,04,19,12,27,17.50
2010,04,19,12,28,17.50
2010,04,19,12,29,17.60
2010,04,19,12,30,17.70
2010,04,19,12,31,17.80
2010,04,19,12,32,17.90
2010,04,19,12,33,17.90
2010,04,19,12,34,18.00
2010,04,19,12,35,18.00
2010,04,19,12,36,17.90
2010,04,19,12,37,18.00
2010,04,19,12,38,18.00
2010,04,19,12,39,18.00
2010,04,19,12,40,18.00
2010,04,19,12,41,18.00
2010,04,19,12,42,18.00
2010,04,19,12,43,17.90
2010,04,19,12,44,17.90
2010,04,19,12,45,17.90
2010,04,19,12,46,17.90
2010,04,19,12,47,18.00
2010,04,19,12,48,18.00
2010,04,19,12,49,18.10
2010,04,19,12,50,18.20
2010,04,19,12,51,18.20
2010,04,19,12,52,18.30
2010,04,19,12,53,18.20
2010,04,19,12,54,18.20
2010,04,19,12,55,18.20
2010,04,19,12,56,18.20
2010,04,19,12,57,18.20
2010,04,19,12,58,18.10
2010,04,19,12,59,18.10
2010,04,19,13,00,18.10
2010,04,19,13,01,18.10
2010,04,19,13,02,18.00
2010,04,19,13,03,17.90
2010,04,19,13,04,17.80
2010,04,19,13,05,17.70
2010,04,19,13,06,17.60
2010,04,19,13,07,17.60
2010,04,19,13,08,17.60
2010,04,19,13,09,17.60
2010,04,19,13,10,17.60
2010,04,19,13,11,17.60
2010,04,19,13,12,17.60
2010,04,19,13,13,17.70
2010,04,19,13,14,17.70
2010,04,19,13,15,17.70
2010,04,19,13,16,17.70
2010,04,19,13,17,17.80
2010,04,19,13,18,17.80
2010,04,19,13,19,17.80
2010,04,19,13,20,17.80
2010,04,19,13,21,17.80
2010,04,19,13,22,17.80
2010,04,19,13,23,17.90
2010,04,19,13,24,17.80
2010,04,19,13,25,17.80
2010,04,19,13,26,17.80
2010,04,19,13,27,17.80
2010,04,19,13,28,17.70
2010,04,19,13,29,17.70
2010,04,19,13,30,17.70
2010,04,19,13,31,17.80
2010,04,19,13,32,17.80
2010,04,19,13,33,17.80
2010,04,19,13,34,17.90
2010,04,19,13,35,17.90
2010,04,19,13,36,17.90
2010,04,19,13,37,17.90
2010,04,19,13,38,17.90
2010,04,19,13,39,17.90
2010,04,19,13,40,17.90
2010,04,19,13,41,17.90
2010,04,19,13,42,17.90
2010,04,19,13,43,17.90
2010,04,19,13,44,18.00
2010,04,19,13,45,18.10
2010,04,19,13,46,18.10
2010,04,19,13,47,18.00
2010,04,19,13,48,18.00
2010,04,19,13,49,18.00
2010,04,19,13,50,17.90
2010,04,19,13,51,17.90
2010,04,19,13,52,17.90
2010,04,19,13,53,17.90
2010,04,19,13,54,17.90
2010,04,19,13,55,17.90
2010,04,19,13,56,18.00
2010,04,19,13,57,18.00
2010,04,19,13,58,18.00
2010,04,19,13,59,18.10
2010,04,19,14,00,18.00
2010,04,19,14,01,18.00
2010,04,19,14,02,17.90
2010,04,19,14,03,17.90
2010,04,19,14,04,17.90
2010,04,19,14,05,18.00
2010,04,19,14,06,18.10
2010,04,19,14,07,18.20
2010,04,19,14,08,18.30
2010,04,19,14,09,18.50
2010,04,19,14,10,18.50
2010,04,19,14,11,18.60
2010,04,19,14,12,18.60
2010,04,19,14,13,18.60
2010,04,19,14,14,18.60
2010,04,19,14,15,18.60
2010,04,19,14,16,18.60
2010,04,19,14,17,18.60
2010,04,19,14,18,18.70
2010,04,19,14,19,18.80
2010,04,19,14,20,18.90
2010,04,19,14,21,19.00
2010,04,19,14,22,19.10
2010,04,19,14,23,19.20
2010,04,19,14,24,19.30
2010,04,19,14,25,19.40
2010,04,19,14,26,19.50
2010,04,19,14,27,19.70
2010,04,19,14,28,19.80
2010,04,19,14,29,20.00
2010,04,19,14,30,20.10
2010,04,19,14,31,20.10
2010,04,19,14,32,20.00
2010,04,19,14,33,20.00
2010,04,19,14,34,19.90
2010,04,19,14,35,19.80
2010,04,19,14,36,19.80
2010,04,19,14,37,19.80
2010,04,19,14,38,19.80
2010,04,19,14,39,19.80
2010,04,19,14,40,19.70
2010,04,19,14,41,19.80
2010,04,19,14,42,19.80
2010,04,19,14,43,19.90
2010,04,19,14,44,19.90
2010,04,19,14,45,19.90
2010,04,19,14,46,19.90
2010,04,19,14,47,19.90
2010,04,19,14,48,19.90
2010,04,19,14,49,19.90
2010,04,19,14,50,19.90
2010,04,19,14,51,19.90
2010,04,19,14,52,19.70
2010,04,19,14,53,19.70
2010,04,19,14,54,19.70
2010,04,19,14,55,19.70
2010,04,19,14,56,19.70
2010,04,19,14,57,19.70
2010,04,19,14,58,19.90
2010,04,19,14,59,19.90
2010,04,19,15,00,20.00
2010,04,19,15,01,20.00
2010,04,19,15,02,19.90
2010,04,19,15,03,19.90
2010,04,19,15,04,19.80
2010,04,19,15,05,19.70
2010,04,19,15,06,19.70
2010,04,19,15,07,19.80
2010,04,19,15,08,19.80
2010,04,19,15,09,19.80
2010,04,19,15,10,19.80
2010,04,19,15,11,19.80
2010,04,19,15,12,19.80
2010,04,19,15,13,19.80
2010,04,19,15,14,19.80
2010,04,19,15,15,19.60
2010,04,19,15,16,19.50
2010,04,19,15,17,19.40
2010,04,19,15,18,19.30
2010,04,19,15,19,19.20
2010,04,19,15,20,19.20
2010,04,19,15,21,19.10
2010,04,19,15,22,19.10
2010,04,19,15,23,19.20
2010,04,19,15,24,19.20
2010,04,19,15,25,19.30
2010,04,19,15,26,19.30
2010,04,19,15,27,19.30
2010,04,19,15,28,19.40
2010,04,19,15,29,19.40
2010,04,19,15,30,19.40
2010,04,19,15,31,19.50
2010,04,19,15,32,19.50
2010,04,19,15,33,19.60
2010,04,19,15,34,19.80
2010,04,19,15,35,19.90
2010,04,19,15,36,20.10
2010,04,19,15,37,20.20
2010,04,19,15,38,20.30
2010,04,19,15,39,20.30
2010,04,19,15,40,20.30
2010,04,19,15,41,20.20
2010,04,19,15,42,20.20
2010,04,19,15,43,20.20
2010,04,19,15,44,20.20
2010,04,19,15,45,20.20
2010,04,19,15,46,20.10
2010,04,19,15,47,20.00
2010,04,19,15,48,19.90
2010,04,19,15,49,19.80
2010,04,19,15,50,19.70
2010,04,19,15,51,19.60
2010,04,19,15,52,19.60
2010,04,19,15,53,19.50
2010,04,19,15,54,19.40
2010,04,19,15,55,19.30
2010,04,19,15,56,19.20
2010,04,19,15,57,19.10
2010,04,19,15,58,19.00
2010,04,19,15,59,18.90
2010,04,19,16,00,18.70
2010,04,19,16,01,18.60
2010,04,19,16,02,18.50
2010,04,19,16,03,18.30
2010,04,19,16,04,18.20
2010,04,19,16,05,18.00
2010,04,19,16,06,17.90
2010,04,19,16,07,17.80
2010,04,19,16,08,17.80
2010,04,19,16,09,17.70
2010,04,19,16,10,17.70
2010,04,19,16,11,17.60
2010,04,19,16,12,17.60
2010,04,19,16,13,17.50
2010,04,19,16,14,17.50
2010,04,19,16,15,17.40
2010,04,19,16,16,17.30
2010,04,19,16,17,17.30
2010,04,19,16,18,17.30
2010,04,19,16,19,17.30
2010,04,19,16,20,17.30
2010,04,19,16,21,17.20
2010,04,19,16,22,17.20
2010,04,19,16,23,17.10
2010,04,19,16,24,17.00
2010,04,19,16,25,17.00
2010,04,19,16,26,16.90
2010,04,19,16,27,16.80
2010,04,19,16,28,16.80
2010,04,19,16,29,16.70
2010,04,19,16,30,16.70
2010,04,19,16,31,16.60
2010,04,19,16,32,16.60
2010,04,19,16,33,16.60
2010,04,19,16,34,16.50
2010,04,19,16,35,16.50
2010,04,19,16,36,16.50
2010,04,19,16,37,16.50
2010,04,19,16,38,16.50
2010,04,19,16,39,16.50
2010,04,19,16,40,16.50
2010,04,19,16,41,16.60
2010,04,19,16,42,16.60
2010,04,19,16,43,16.60
2010,04,19,16,44,16.60
2010,04,19,16,45,16.60
2010,04,19,16,46,16.60
2010,04,19,16,47,16.60
2010,04,19,16,48,16.70
2010,04,19,16,49,16.70
2010,04,19,16,50,16.70
2010,04,19,16,51,16.60
2010,04,19,16,52,16.60
2010,04,19,16,53,16.70
2010,04,19,16,54,16.70
2010,04,19,16,55,16.70
2010,04,19,16,56,16.60
2010,04,19,16,57,16.60
2010,04,19,16,58,16.60
2010,04,19,16,59,16.60
2010,04,19,17,00,16.60
2010,04,19,17,01,16.50
2010,04,19,17,02,16.50
2010,04,19,17,03,16.40
2010,04,19,17,04,16.40
2010,04,19,17,05,16.40
2010,04,19,17,06,16.30
2010,04,19,17,07,16.30
2010,04,19,17,08,16.30
2010,04,19,17,09,16.30
2010,04,19,17,10,16.30
2010,04,19,17,11,16.40
2010,04,19,17,12,16.40
2010,04,19,17,13,16.40
2010,04,19,17,14,16.40
2010,04,19,17,15,16.50
2010,04,19,17,16,16.50
2010,04,19,17,17,16.50
2010,04,19,17,18,16.50
2010,04,19,17,19,16.50
2010,04,19,17,20,16.50
2010,04,19,17,21,16.50
2010,04,19,17,22,16.50
2010,04,19,17,23,16.50
2010,04,19,17,24,16.50
2010,04,19,17,25,16.50
2010,04,19,17,26,16.60